CZ-6A DEB, 54276

Orbit data source: Space-Track

CZ-6A DEB, 54276 is space debris in SSO originally from a launch on Fri, 11 Nov 2022 UTC launched from the Taiyaun Space Center, China (TSC). Debris objects in space refer to the collection of defunct objects orbiting the Earth. Examples of debris include non-operational satellites, rocket bodies, and fragments generated from explosions, collisions, or faulty payload assembly.

Loading next visibility...
Identifier
54276, 2022-151T
Orbit
SSO
Country
Flag of CNCN / PRC
Related business
Manufacturer
SAST
Mission
Spacecraft
Bus & Motor
Unknown
Mass
Unknown
Launch date (UTC)
2022-11-11 (4 years ago)
Launch vehicle
Unknown
Launch site
Taiyaun Space Center, China (TSC)
Object type
Payload
Rocket body
Debris
Shape & HBR
Unknown shape, 0.1 m
Radar Cross Section
Medium (>0.1 m² and <1 m²)

Expand to show TLE details & history
Last TLE update: 9 hours ago

TLE from 9 hours ago
0 CZ-6A DEB
1 54276U 22151T   26208.23239858  .00000663  00000-0  61470-3 0  9999
2 54276  98.8646 131.5538 0206014  67.6105 294.6733 13.76377053185494
Epoch: 2026-07-27T05:34Z
TLE epoch observation values (Epoch: 2026-07-27T05:34:39.237Z)
Latitude
-0.00002°
Longitude
102.97139°
Altitude
918.963 km
Speed
7.423 km/s
True Right ascension
08h 46m 12s
True Declination
0° 00' 00"
Sunlit
Object was in daylight at epoch
Visualization orbit readout
Latitude
Unknown
Longitude
Unknown
Altitude
Unknown
Speed
Unknown
Apparent Right ascension
Unknown
Apparent Declination
Unknown
Sunlit
N/A
Visualization observer readout
Local Sidereal Time
04:14:13
Azimuth
Unknown
Elevation
Unknown
Doppler factor
Unknown
Orbital elements
Apogee altitude
1,125.452 km
Perigee altitude
822.524 km
Semi-major axis
7,352.125 km
Eccentricity
0.0206
Inclination
98.8646°
RAAN
131.5538°
Arg. of periapsis
67.6105°
True anomaly
292.5053°
Mean anomaly
294.6733°
Eccentric anomaly
293.59158°
Mean motion
3.4429 °/min
Orbital period
104.56 mins
BSTAR
0.0006147
Loading maneuver chart data...
Computing Atmospheric mass density...
Loading historical data...
Loading historical data...
Loading historical data...
Loading historical data...
Loading historical data...
Loading historical data...
Loading historical data...

Documentation

Showing up to 5 results
|